Time,TemperatureF,DewpointF,PressureIn,WindDirection,WindDirectionDegrees,WindSpeedMPH,WindSpeedGustMPH,Humidity,HourlyPrecipIn,Conditions,Clouds,dailyrainin,SoftwareType,DateUTC
2013-07-09 00:01:00,79.0,68.3,29.97,WNW,286,1.0,3.0,70,0.00,,FEW250,0.00,VWS V14.01,2013-07-09 04:01:00,
2013-07-09 00:06:00,78.8,68.6,29.97,WNW,301,1.0,4.0,71,0.00,,FEW250,0.00,VWS V14.01,2013-07-09 04:06:00,
2013-07-09 00:11:00,78.7,68.6,29.97,West,278,0.0,2.0,71,0.00,,FEW250,0.00,VWS V14.01,2013-07-09 04:11:00,
2013-07-09 00:16:00,78.6,68.4,29.97,NW,306,0.0,7.0,71,0.00,,FEW250,0.00,VWS V14.01,2013-07-09 04:16:00,
2013-07-09 00:21:00,78.5,68.3,29.97,NW,306,0.0,1.0,71,0.00,,FEW250,0.00,VWS V14.01,2013-07-09 04:21:00,
2013-07-09 00:26:00,78.5,68.7,29.97,WNW,294,0.0,5.0,72,0.00,,FEW250,0.00,VWS V14.01,2013-07-09 04:26:00,
2013-07-09 00:31:00,78.4,68.6,29.97,West,281,0.0,4.0,72,0.00,,FEW250,0.00,VWS V14.01,2013-07-09 04:31:00,
2013-07-09 00:36:00,78.4,68.6,29.97,West,281,0.0,4.0,72,0.00,,FEW250,0.00,VWS V14.01,2013-07-09 04:36:00,
2013-07-09 00:41:00,78.4,68.6,29.97,WNW,288,0.0,4.0,72,0.00,,FEW250,0.00,VWS V14.01,2013-07-09 04:41:00,
2013-07-09 00:46:00,78.3,68.5,29.97,WNW,288,0.0,4.0,72,0.00,,FEW250,0.00,VWS V14.01,2013-07-09 04:46:00,
2013-07-09 00:51:00,78.2,68.8,29.97,West,259,4.0,4.0,73,0.00,,FEW250,0.00,VWS V14.01,2013-07-09 04:51:00,
2013-07-09 00:56:00,78.1,68.8,29.97,WNW,293,0.0,4.0,72,0.00,,FEW250,0.00,VWS V14.01,2013-07-09 04:56:00,
2013-07-09 01:01:00,78.1,68.3,29.98,WNW,295,0.0,1.0,72,0.00,,SCT250,0.00,VWS V14.01,2013-07-09 05:01:00,
2013-07-09 01:06:00,78.0,68.7,29.97,NW,309,0.0,4.0,73,0.00,,SCT250,0.00,VWS V14.01,2013-07-09 05:06:00,
2013-07-09 01:11:00,78.1,68.8,29.97,SW,236,0.0,1.0,73,0.00,,SCT250,0.00,VWS V14.01,2013-07-09 05:11:00,
2013-07-09 01:16:00,78.0,68.7,29.97,WSW,251,0.0,2.0,73,0.00,,SCT250,0.00,VWS V14.01,2013-07-09 05:16:00,
2013-07-09 01:21:00,78.0,68.7,29.97,WSW,251,0.0,3.0,73,0.00,,SCT250,0.00,VWS V14.01,2013-07-09 05:21:00,
2013-07-09 01:26:00,78.0,68.7,29.97,WSW,251,0.0,3.0,73,0.00,,SCT250,0.00,VWS V14.01,2013-07-09 05:26:00,
2013-07-09 01:31:00,78.0,68.7,29.97,WSW,252,0.0,1.0,73,0.00,,SCT250,0.00,VWS V14.01,2013-07-09 05:31:00,
2013-07-09 01:36:00,77.8,68.5,29.97,WNW,289,0.0,3.0,73,0.00,,SCT250,0.00,VWS V14.01,2013-07-09 05:36:00,
2013-07-09 01:41:00,77.7,68.3,29.97,NW,312,0.0,1.0,73,0.00,,SCT250,0.00,VWS V14.01,2013-07-09 05:41:00,
2013-07-09 01:46:00,77.7,68.4,29.97,WSW,243,3.0,4.0,73,0.00,,SCT250,0.00,VWS V14.01,2013-07-09 05:46:00,
2013-07-09 01:51:00,77.7,68.4,29.97,WSW,240,0.0,3.0,73,0.00,,SCT250,0.00,VWS V14.01,2013-07-09 05:51:00,
2013-07-09 01:56:00,77.5,68.2,29.97,WNW,302,0.0,3.0,73,0.00,,SCT250,0.00,VWS V14.01,2013-07-09 05:56:00,
2013-07-09 02:01:00,77.4,68.5,29.97,NW,304,0.0,0.0,74,0.00,,SCT250,0.00,VWS V14.01,2013-07-09 06:01:00,
2013-07-09 02:06:00,77.3,68.4,29.97,NW,304,1.0,4.0,74,0.00,,SCT250,0.00,VWS V14.01,2013-07-09 06:06:00,
2013-07-09 02:11:00,77.2,68.3,29.97,NW,304,0.0,1.0,74,0.00,,SCT250,0.00,VWS V14.01,2013-07-09 06:11:00,
2013-07-09 02:16:00,77.1,68.2,29.97,NW,312,0.0,5.0,74,0.00,,SCT250,0.00,VWS V14.01,2013-07-09 06:16:00,
2013-07-09 02:21:00,77.0,68.1,29.97,WNW,301,0.0,3.0,74,0.00,,SCT250,0.00,VWS V14.01,2013-07-09 06:21:00,
2013-07-09 02:26:00,77.0,68.1,29.97,WNW,283,2.0,7.0,74,0.00,,SCT250,0.00,VWS V14.01,2013-07-09 06:26:00,
2013-07-09 02:31:00,76.9,68.0,29.97,WNW,296,0.0,4.0,74,0.00,,SCT250,0.00,VWS V14.01,2013-07-09 06:31:00,
2013-07-09 02:36:00,76.9,68.0,29.96,WNW,303,0.0,4.0,74,0.00,,SCT250,0.00,VWS V14.01,2013-07-09 06:36:00,
2013-07-09 02:41:00,76.7,68.2,29.97,WNW,291,0.0,1.0,75,0.00,,SCT250,0.00,VWS V14.01,2013-07-09 06:41:00,
2013-07-09 02:46:00,76.7,68.2,29.97,WNW,292,0.0,5.0,75,0.00,,SCT250,0.00,VWS V14.01,2013-07-09 06:46:00,
2013-07-09 02:51:00,76.7,68.1,29.97,WNW,292,0.0,1.0,75,0.00,,SCT250,0.00,VWS V14.01,2013-07-09 06:51:00,
2013-07-09 02:56:00,76.6,68.1,29.97,WNW,292,0.0,1.0,75,0.00,,SCT250,0.00,VWS V14.01,2013-07-09 06:56:00,
2013-07-09 03:01:00,76.6,68.3,29.97,WNW,295,1.0,1.0,76,0.00,,SCT250,0.00,VWS V14.01,2013-07-09 07:01:00,
2013-07-09 03:06:00,76.4,68.3,29.97,NW,309,0.0,4.0,76,0.00,,SCT250,0.00,VWS V14.01,2013-07-09 07:06:00,
2013-07-09 03:11:00,76.4,68.3,29.97,NW,311,0.0,0.0,76,0.00,,SCT250,0.00,VWS V14.01,2013-07-09 07:11:00,
2013-07-09 03:16:00,76.4,68.3,29.97,NW,309,0.0,1.0,76,0.00,,SCT250,0.00,VWS V14.01,2013-07-09 07:16:00,
2013-07-09 03:21:00,76.3,68.6,29.97,NW,310,0.0,1.0,77,0.00,,SCT250,0.00,VWS V14.01,2013-07-09 07:21:00,
2013-07-09 03:26:00,76.4,68.7,29.97,WSW,256,3.0,3.0,77,0.00,,SCT250,0.00,VWS V14.01,2013-07-09 07:26:00,
2013-07-09 03:31:00,76.4,68.7,29.97,SW,226,0.0,0.0,77,0.00,,SCT250,0.00,VWS V14.01,2013-07-09 07:31:00,
2013-07-09 03:36:00,76.3,68.6,29.97,SW,226,0.0,0.0,77,0.00,,SCT250,0.00,VWS V14.01,2013-07-09 07:36:00,
2013-07-09 03:41:00,76.3,68.9,29.97,SW,226,0.0,0.0,78,0.00,,SCT250,0.00,VWS V14.01,2013-07-09 07:41:00,
2013-07-09 03:46:00,76.2,68.8,29.97,SW,226,0.0,0.0,78,0.00,,SCT250,0.00,VWS V14.01,2013-07-09 07:46:00,
2013-07-09 03:52:00,76.1,68.8,29.97,SW,226,0.0,0.0,78,0.00,,SCT250,0.00,VWS V14.01,2013-07-09 07:52:00,
2013-07-09 03:57:00,76.0,68.7,29.97,WSW,256,0.0,1.0,78,0.00,,SCT250,0.00,VWS V14.01,2013-07-09 07:57:00,
2013-07-09 04:02:00,75.9,68.6,29.96,WSW,256,0.0,0.0,78,0.00,,FEW100,0.00,VWS V14.01,2013-07-09 08:02:00,
2013-07-09 04:07:00,75.8,68.8,29.97,WSW,256,0.0,2.0,79,0.00,,FEW100,0.00,VWS V14.01,2013-07-09 08:07:00,
2013-07-09 04:12:00,75.9,68.6,29.96,WSW,256,0.0,3.0,78,0.00,,FEW100,0.00,VWS V14.01,2013-07-09 08:12:00,
2013-07-09 04:17:00,75.9,68.7,29.97,WSW,246,2.0,4.0,78,0.00,,FEW100,0.00,VWS V14.01,2013-07-09 08:17:00,
2013-07-09 04:22:00,76.0,68.7,29.97,WSW,245,0.0,1.0,78,0.00,,FEW100,0.00,VWS V14.01,2013-07-09 08:22:00,
2013-07-09 04:27:00,76.1,68.8,29.97,WSW,245,3.0,3.0,78,0.00,,FEW100,0.00,VWS V14.01,2013-07-09 08:27:00,
2013-07-09 04:32:00,76.0,68.7,29.97,WSW,246,4.0,4.0,78,0.00,,FEW100,0.00,VWS V14.01,2013-07-09 08:32:00,
2013-07-09 04:37:00,75.8,68.8,29.97,WSW,245,0.0,4.0,79,0.00,,FEW100,0.00,VWS V14.01,2013-07-09 08:37:00,
2013-07-09 04:42:00,75.7,68.7,29.97,WSW,246,0.0,3.0,79,0.00,,FEW100,0.00,VWS V14.01,2013-07-09 08:42:00,
2013-07-09 04:47:00,75.6,68.6,29.98,WSW,239,0.0,4.0,79,0.00,,FEW100,0.00,VWS V14.01,2013-07-09 08:47:00,
2013-07-09 04:52:00,75.5,68.9,29.98,WSW,239,0.0,1.0,80,0.00,,FEW100,0.00,VWS V14.01,2013-07-09 08:52:00,
2013-07-09 04:57:00,75.5,68.9,29.98,WSW,240,0.0,5.0,80,0.00,,FEW100,0.00,VWS V14.01,2013-07-09 08:57:00,
2013-07-09 05:02:00,75.6,68.6,29.98,WSW,240,0.0,4.0,79,0.00,,SCT250,0.00,VWS V14.01,2013-07-09 09:02:00,
2013-07-09 05:07:00,75.7,68.7,29.98,WSW,239,0.0,6.0,79,0.00,,SCT250,0.00,VWS V14.01,2013-07-09 09:07:00,
2013-07-09 05:12:00,75.6,68.6,29.99,WSW,240,0.0,3.0,79,0.00,,SCT250,0.00,VWS V14.01,2013-07-09 09:12:00,
2013-07-09 05:17:00,75.6,68.7,29.99,SW,220,0.0,4.0,79,0.00,,SCT250,0.00,VWS V14.01,2013-07-09 09:17:00,
2013-07-09 05:22:00,75.8,68.8,29.99,SW,220,0.0,4.0,79,0.00,,SCT250,0.00,VWS V14.01,2013-07-09 09:22:00,
2013-07-09 05:27:00,75.6,68.6,29.99,SW,220,0.0,4.0,79,0.00,,SCT250,0.00,VWS V14.01,2013-07-09 09:27:00,
2013-07-09 05:32:00,75.7,68.7,29.99,SW,220,0.0,1.0,79,0.00,,SCT250,0.00,VWS V14.01,2013-07-09 09:32:00,
2013-07-09 05:37:00,75.7,68.7,29.99,SW,220,0.0,1.0,79,0.00,,SCT250,0.00,VWS V14.01,2013-07-09 09:37:00,
2013-07-09 05:42:00,75.7,68.7,29.99,SW,220,0.0,0.0,79,0.00,,SCT250,0.00,VWS V14.01,2013-07-09 09:42:00,
2013-07-09 05:47:00,75.6,68.6,29.99,SW,220,4.0,4.0,79,0.00,,SCT250,0.00,VWS V14.01,2013-07-09 09:47:00,
2013-07-09 05:52:00,75.7,69.1,29.99,SW,219,3.0,5.0,80,0.00,,SCT250,0.00,VWS V14.01,2013-07-09 09:52:00,
2013-07-09 05:57:00,75.8,69.1,29.99,SW,220,0.0,5.0,80,0.00,,SCT250,0.00,VWS V14.01,2013-07-09 09:57:00,
2013-07-09 06:02:00,75.6,69.1,29.99,SW,220,0.0,1.0,80,0.00,,SCT250,0.00,VWS V14.01,2013-07-09 10:02:00,
2013-07-09 06:07:00,75.6,69.0,29.99,SW,220,0.0,1.0,80,0.00,,SCT250,0.00,VWS V14.01,2013-07-09 10:07:00,
2013-07-09 06:12:00,75.6,69.0,30.00,SW,220,0.0,1.0,80,0.00,,SCT250,0.00,VWS V14.01,2013-07-09 10:12:00,
2013-07-09 06:17:00,75.6,69.0,29.99,SW,220,0.0,1.0,80,0.00,,SCT250,0.00,VWS V14.01,2013-07-09 10:17:00,
2013-07-09 06:22:00,75.5,69.4,30.00,SW,220,0.0,2.0,81,0.00,,SCT250,0.00,VWS V14.01,2013-07-09 10:22:00,
2013-07-09 06:27:00,75.6,69.7,30.00,SW,227,0.0,6.0,82,0.00,,SCT250,0.00,VWS V14.01,2013-07-09 10:27:00,
2013-07-09 06:32:00,75.5,70.3,29.99,WSW,252,0.0,1.0,84,0.00,,SCT250,0.00,VWS V14.01,2013-07-09 10:32:00,
2013-07-09 06:37:00,75.5,70.2,29.99,WSW,253,2.0,4.0,84,0.00,,SCT250,0.00,VWS V14.01,2013-07-09 10:37:00,
2013-07-09 06:42:00,75.4,70.2,29.99,SW,226,0.0,4.0,84,0.00,,SCT250,0.00,VWS V14.01,2013-07-09 10:42:00,
2013-07-09 06:47:00,75.4,70.2,30.00,WSW,251,3.0,4.0,84,0.00,,SCT250,0.00,VWS V14.01,2013-07-09 10:47:00,
2013-07-09 06:52:00,75.3,70.5,30.00,WSW,249,4.0,6.0,85,0.00,,SCT250,0.00,VWS V14.01,2013-07-09 10:52:00,
2013-07-09 06:57:00,75.2,70.4,30.00,WSW,249,0.0,6.0,85,0.00,,SCT250,0.00,VWS V14.01,2013-07-09 10:57:00,
2013-07-09 07:02:00,75.2,70.6,30.00,WSW,250,0.0,4.0,86,0.00,,SCT250,0.00,VWS V14.01,2013-07-09 11:02:00,
2013-07-09 07:07:00,75.0,70.6,30.00,WSW,253,0.0,4.0,86,0.00,,SCT250,0.00,VWS V14.01,2013-07-09 11:07:00,
2013-07-09 07:12:00,75.1,70.6,30.00,SW,236,3.0,6.0,86,0.00,,SCT250,0.00,VWS V14.01,2013-07-09 11:12:00,
2013-07-09 07:17:00,75.2,70.4,30.00,West,270,0.0,6.0,85,0.00,,SCT250,0.00,VWS V14.01,2013-07-09 11:17:00,
2013-07-09 07:22:00,75.2,70.7,30.00,WSW,247,0.0,3.0,86,0.00,,SCT250,0.00,VWS V14.01,2013-07-09 11:22:00,
2013-07-09 07:27:00,75.3,70.5,30.00,WSW,247,0.0,3.0,85,0.00,,SCT250,0.00,VWS V14.01,2013-07-09 11:27:00,
2013-07-09 07:32:00,75.4,70.6,30.00,WSW,247,0.0,1.0,85,0.00,,SCT250,0.00,VWS V14.01,2013-07-09 11:32:00,
2013-07-09 07:37:00,75.3,70.5,30.00,WSW,248,0.0,1.0,85,0.00,,SCT250,0.00,VWS V14.01,2013-07-09 11:37:00,
2013-07-09 07:42:00,75.5,70.3,30.00,WSW,247,0.0,0.0,84,0.00,,SCT250,0.00,VWS V14.01,2013-07-09 11:42:00,
2013-07-09 07:47:00,75.5,70.3,30.00,WSW,247,0.0,0.0,84,0.00,,SCT250,0.00,VWS V14.01,2013-07-09 11:47:00,
2013-07-09 07:52:00,75.6,70.8,30.00,WSW,247,0.0,0.0,85,0.00,,SCT250,0.00,VWS V14.01,2013-07-09 11:52:00,
2013-07-09 07:57:00,75.7,70.5,30.01,WSW,247,0.0,0.0,84,0.00,,SCT250,0.00,VWS V14.01,2013-07-09 11:57:00,
2013-07-09 08:02:00,75.8,70.6,30.01,WSW,247,0.0,0.0,84,0.00,,SCT250,0.00,VWS V14.01,2013-07-09 12:02:00,
2013-07-09 08:07:00,76.1,70.6,30.01,WSW,247,0.0,2.0,83,0.00,,SCT250,0.00,VWS V14.01,2013-07-09 12:07:00,
2013-07-09 08:12:00,76.2,70.7,30.01,WSW,247,0.0,1.0,83,0.00,,SCT250,0.00,VWS V14.01,2013-07-09 12:12:00,
2013-07-09 08:17:00,76.3,70.8,30.01,WNW,289,0.0,3.0,83,0.00,,SCT250,0.00,VWS V14.01,2013-07-09 12:17:00,
2013-07-09 08:22:00,76.4,70.9,30.01,WNW,289,0.0,1.0,83,0.00,,SCT250,0.00,VWS V14.01,2013-07-09 12:22:00,
2013-07-09 08:27:00,76.6,70.7,30.01,WSW,248,0.0,6.0,82,0.00,,SCT250,0.00,VWS V14.01,2013-07-09 12:27:00,
2013-07-09 08:32:00,76.7,70.8,30.01,WSW,244,0.0,1.0,82,0.00,,SCT250,0.00,VWS V14.01,2013-07-09 12:32:00,
2013-07-09 08:37:00,76.9,71.0,30.01,SW,233,3.0,4.0,82,0.00,,SCT250,0.00,VWS V14.01,2013-07-09 12:37:00,
2013-07-09 08:42:00,77.0,70.7,30.01,WSW,240,0.0,1.0,81,0.00,,SCT250,0.00,VWS V14.01,2013-07-09 12:42:00,
2013-07-09 08:47:00,77.4,71.1,30.00,WSW,241,0.0,5.0,81,0.00,,SCT250,0.00,VWS V14.01,2013-07-09 12:47:00,
2013-07-09 08:52:00,77.8,71.5,30.00,WSW,250,0.0,7.0,81,0.00,,SCT250,0.00,VWS V14.01,2013-07-09 12:52:00,
2013-07-09 08:57:00,78.0,71.7,30.01,SW,226,0.0,7.0,81,0.00,,SCT250,0.00,VWS V14.01,2013-07-09 12:57:00,
2013-07-09 09:02:00,78.5,71.8,30.01,WSW,250,4.0,4.0,80,0.00,,SCT250,0.00,VWS V14.01,2013-07-09 13:02:00,
2013-07-09 09:07:00,78.7,72.0,30.00,SSW,209,4.0,5.0,80,0.00,,SCT250,0.00,VWS V14.01,2013-07-09 13:07:00,
2013-07-09 09:12:00,79.0,71.9,30.00,WSW,246,1.0,6.0,79,0.00,,SCT250,0.00,VWS V14.01,2013-07-09 13:12:00,
2013-07-09 09:17:00,79.2,72.2,30.00,WSW,244,0.0,6.0,79,0.00,,SCT250,0.00,VWS V14.01,2013-07-09 13:17:00,
2013-07-09 09:22:00,79.6,72.2,30.01,SSW,212,0.0,2.0,78,0.00,,SCT250,0.00,VWS V14.01,2013-07-09 13:22:00,
2013-07-09 09:27:00,80.1,72.2,30.00,WSW,237,3.0,7.0,77,0.00,,SCT250,0.00,VWS V14.01,2013-07-09 13:27:00,
2013-07-09 09:32:00,80.3,72.4,30.00,West,260,0.0,4.0,77,0.00,,SCT250,0.00,VWS V14.01,2013-07-09 13:32:00,
2013-07-09 09:37:00,80.7,72.8,30.01,West,262,0.0,4.0,77,0.00,,SCT250,0.00,VWS V14.01,2013-07-09 13:37:00,
2013-07-09 09:42:00,81.0,72.3,30.00,WSW,246,0.0,1.0,75,0.00,,SCT250,0.00,VWS V14.01,2013-07-09 13:42:00,
2013-07-09 09:47:00,80.9,72.2,30.00,WSW,248,2.0,7.0,75,0.00,,SCT250,0.00,VWS V14.01,2013-07-09 13:47:00,
2013-07-09 09:52:00,81.1,72.8,29.99,SW,225,4.0,4.0,76,0.00,,SCT250,0.00,VWS V14.01,2013-07-09 13:52:00,
2013-07-09 09:57:00,81.5,72.8,30.00,WSW,246,0.0,6.0,75,0.00,,SCT250,0.00,VWS V14.01,2013-07-09 13:57:00,
2013-07-09 10:02:00,82.0,72.9,29.99,SW,233,3.0,5.0,74,0.00,,SCT250,0.00,VWS V14.01,2013-07-09 14:02:00,
2013-07-09 10:07:00,82.1,73.0,30.00,WSW,248,0.0,5.0,74,0.00,,SCT250,0.00,VWS V14.01,2013-07-09 14:07:00,
2013-07-09 10:12:00,82.6,73.1,29.99,WSW,247,0.0,0.0,73,0.00,,SCT250,0.00,VWS V14.01,2013-07-09 14:12:00,
2013-07-09 10:17:00,83.0,73.5,30.00,WSW,248,0.0,0.0,73,0.00,,SCT250,0.00,VWS V14.01,2013-07-09 14:17:00,
2013-07-09 10:22:00,83.4,73.1,30.00,SW,223,1.0,4.0,71,0.00,,SCT250,0.00,VWS V14.01,2013-07-09 14:22:00,
2013-07-09 10:27:00,83.6,73.6,30.00,SW,228,0.0,6.0,72,0.00,,SCT250,0.00,VWS V14.01,2013-07-09 14:27:00,
2013-07-09 10:32:00,83.7,72.9,30.00,SW,236,6.0,8.0,70,0.00,,SCT250,0.00,VWS V14.01,2013-07-09 14:32:00,
2013-07-09 10:37:00,83.6,73.3,30.00,SW,231,0.0,8.0,71,0.00,,SCT250,0.00,VWS V14.01,2013-07-09 14:37:00,
2013-07-09 10:42:00,83.9,73.1,30.00,SW,233,0.0,3.0,70,0.00,,SCT250,0.00,VWS V14.01,2013-07-09 14:42:00,
2013-07-09 10:47:00,84.2,73.9,30.00,SW,222,0.0,5.0,71,0.00,,SCT250,0.00,VWS V14.01,2013-07-09 14:47:00,
2013-07-09 10:52:00,84.8,73.5,30.00,SW,219,1.0,8.0,69,0.00,,SCT250,0.00,VWS V14.01,2013-07-09 14:52:00,
2013-07-09 10:57:00,85.0,73.2,30.00,West,268,0.0,8.0,68,0.00,,SCT250,0.00,VWS V14.01,2013-07-09 14:57:00,
2013-07-09 11:02:00,85.1,73.4,30.00,West,279,0.0,1.0,68,0.00,,BKN250,0.00,VWS V14.01,2013-07-09 15:02:00,
2013-07-09 11:07:00,85.1,73.4,29.99,SW,227,2.0,5.0,68,0.00,,BKN250,0.00,VWS V14.01,2013-07-09 15:07:00,
2013-07-09 11:12:00,85.2,73.4,30.00,WSW,239,4.0,4.0,68,0.00,,BKN250,0.00,VWS V14.01,2013-07-09 15:12:00,
2013-07-09 11:17:00,85.1,72.8,29.99,West,263,0.0,7.0,68,0.00,,BKN250,0.00,VWS V14.01,2013-07-09 15:17:00,
2013-07-09 11:22:00,85.0,73.7,29.99,South,178,2.0,5.0,69,0.00,,BKN250,0.00,VWS V14.01,2013-07-09 15:22:00,
2013-07-09 11:27:00,85.1,73.3,30.00,WSW,251,1.0,9.0,67,0.00,,BKN250,0.00,VWS V14.01,2013-07-09 15:27:00,
2013-07-09 11:32:00,84.7,73.4,30.00,SW,220,1.0,5.0,69,0.00,,BKN250,0.00,VWS V14.01,2013-07-09 15:32:00,
2013-07-09 11:37:00,84.6,73.3,30.00,WSW,250,0.0,8.0,69,0.00,,BKN250,0.00,VWS V14.01,2013-07-09 15:37:00,
2013-07-09 11:42:00,84.4,73.6,30.00,West,267,0.0,7.0,70,0.00,,BKN250,0.00,VWS V14.01,2013-07-09 15:42:00,
2013-07-09 11:48:00,84.1,72.8,29.99,WSW,255,0.0,9.0,69,0.00,,BKN250,0.00,VWS V14.01,2013-07-09 15:48:00,
2013-07-09 11:53:00,84.2,72.5,30.00,WSW,256,7.0,8.0,68,0.00,,BKN250,0.00,VWS V14.01,2013-07-09 15:53:00,
2013-07-09 11:58:00,84.4,72.7,30.00,West,268,6.0,9.0,68,0.00,,BKN250,0.00,VWS V14.01,2013-07-09 15:58:00,
2013-07-09 12:03:00,84.4,72.2,29.99,SW,229,5.0,10.0,67,0.00,,BKN250,0.00,VWS V14.01,2013-07-09 16:03:00,
2013-07-09 12:08:00,84.3,71.3,30.00,WSW,254,4.0,10.0,65,0.00,,BKN250,0.00,VWS V14.01,2013-07-09 16:08:00,
2013-07-09 12:13:00,84.5,71.9,30.00,WSW,250,4.0,7.0,66,0.00,,BKN250,0.00,VWS V14.01,2013-07-09 16:13:00,
2013-07-09 12:18:00,84.9,71.4,29.99,West,274,4.0,11.0,64,0.00,,BKN250,0.00,VWS V14.01,2013-07-09 16:18:00,
2013-07-09 12:23:00,85.1,71.5,29.99,West,272,3.0,10.0,64,0.00,,BKN250,0.00,VWS V14.01,2013-07-09 16:23:00,
2013-07-09 12:28:00,85.4,72.3,29.99,SSE,164,0.0,10.0,65,0.00,,BKN250,0.00,VWS V14.01,2013-07-09 16:28:00,
2013-07-09 12:33:00,85.7,71.7,29.99,WSW,245,2.0,5.0,63,0.00,,BKN250,0.00,VWS V14.01,2013-07-09 16:33:00,
2013-07-09 12:38:00,86.1,72.0,29.99,WSW,249,4.0,7.0,63,0.00,,BKN250,0.00,VWS V14.01,2013-07-09 16:38:00,
2013-07-09 12:43:00,86.3,71.7,29.98,SSW,204,0.0,9.0,62,0.00,,BKN250,0.00,VWS V14.01,2013-07-09 16:43:00,
2013-07-09 12:48:00,86.3,72.1,29.99,SW,233,0.0,9.0,63,0.00,,BKN250,0.00,VWS V14.01,2013-07-09 16:48:00,
2013-07-09 12:53:00,86.3,72.2,29.99,SW,217,9.0,10.0,63,0.00,,BKN250,0.00,VWS V14.01,2013-07-09 16:53:00,
2013-07-09 12:58:00,86.5,72.9,29.98,SW,229,4.0,10.0,64,0.00,,BKN250,0.00,VWS V14.01,2013-07-09 16:58:00,
2013-07-09 13:03:00,86.7,72.6,29.99,SW,226,9.0,10.0,63,0.00,,BKN250,0.00,VWS V14.01,2013-07-09 17:03:00,
2013-07-09 13:08:00,86.5,72.9,29.98,SW,216,9.0,11.0,63,0.00,,BKN250,0.00,VWS V14.01,2013-07-09 17:08:00,
2013-07-09 13:13:00,86.6,72.9,29.98,SW,229,0.0,10.0,64,0.00,,BKN250,0.00,VWS V14.01,2013-07-09 17:13:00,
2013-07-09 13:18:00,86.9,73.3,29.98,West,267,5.0,10.0,64,0.00,,BKN250,0.00,VWS V14.01,2013-07-09 17:18:00,
2013-07-09 13:23:00,86.8,73.2,29.98,SW,228,0.0,8.0,64,0.00,,BKN250,0.00,VWS V14.01,2013-07-09 17:23:00,
2013-07-09 13:28:00,87.0,73.4,29.98,SSW,205,10.0,10.0,64,0.00,,BKN250,0.00,VWS V14.01,2013-07-09 17:28:00,
2013-07-09 13:33:00,87.0,73.8,29.98,WSW,237,9.0,13.0,65,0.00,,BKN250,0.00,VWS V14.01,2013-07-09 17:33:00,
2013-07-09 13:38:00,86.6,73.4,29.98,West,277,8.0,13.0,65,0.00,,BKN250,0.00,VWS V14.01,2013-07-09 17:38:00,
2013-07-09 13:43:00,86.2,73.5,29.97,West,262,9.0,9.0,66,0.00,,BKN250,0.00,VWS V14.01,2013-07-09 17:43:00,
2013-07-09 13:48:00,85.9,73.2,29.98,WNW,288,7.0,9.0,66,0.00,,BKN250,0.00,VWS V14.01,2013-07-09 17:48:00,
2013-07-09 14:47:00,86.7,75.0,29.97,SW,225,3.0,10.0,68,1.65,,BKN250,0.00,VWS V14.01,2013-07-09 18:47:00,
2013-07-09 14:52:00,85.6,74.7,29.97,SW,231,8.0,9.0,70,0.00,,BKN250,0.00,VWS V14.01,2013-07-09 18:52:00,
2013-07-09 14:57:00,85.7,75.2,29.97,SSW,207,2.0,9.0,71,0.00,,BKN250,0.00,VWS V14.01,2013-07-09 18:57:00,
2013-07-09 15:02:00,85.9,75.0,29.96,WSW,247,2.0,5.0,70,0.00,,BKN250,0.00,VWS V14.01,2013-07-09 19:02:00,
2013-07-09 15:07:00,86.4,75.5,29.97,SSE,164,1.0,8.0,70,0.00,,BKN250,0.00,VWS V14.01,2013-07-09 19:07:00,
2013-07-09 15:12:00,86.5,75.0,29.96,SW,232,1.0,5.0,69,0.00,,BKN250,0.00,VWS V14.01,2013-07-09 19:12:00,
2013-07-09 15:17:00,86.4,75.9,29.95,SW,229,0.0,5.0,71,0.00,,BKN250,0.00,VWS V14.01,2013-07-09 19:17:00,
2013-07-09 15:22:00,86.5,76.0,29.96,SW,220,4.0,5.0,71,0.00,,BKN250,0.00,VWS V14.01,2013-07-09 19:22:00,
2013-07-09 15:27:00,86.7,76.2,29.96,South,175,1.0,5.0,71,0.00,,BKN250,0.00,VWS V14.01,2013-07-09 19:27:00,
2013-07-09 15:32:00,86.5,76.0,29.96,South,187,0.0,5.0,71,0.00,,BKN250,0.00,VWS V14.01,2013-07-09 19:32:00,
2013-07-09 15:37:00,86.4,76.3,29.96,SSW,201,1.0,7.0,72,0.00,,BKN250,0.00,VWS V14.01,2013-07-09 19:37:00,
2013-07-09 15:42:00,86.4,75.9,29.96,South,171,0.0,4.0,71,0.00,,BKN250,0.00,VWS V14.01,2013-07-09 19:42:00,
2013-07-09 15:47:00,86.3,75.7,29.95,SSW,192,0.0,7.0,71,0.00,,BKN250,0.00,VWS V14.01,2013-07-09 19:47:00,
2013-07-09 15:52:00,86.5,76.0,29.95,SSW,200,0.0,1.0,71,0.00,,BKN250,0.00,VWS V14.01,2013-07-09 19:52:00,
2013-07-09 15:57:00,86.6,75.2,29.95,WSW,246,6.0,9.0,69,0.00,,BKN250,0.00,VWS V14.01,2013-07-09 19:57:00,
2013-07-09 16:02:00,86.1,74.3,29.95,ESE,120,0.0,5.0,68,0.00,,BKN240,0.00,VWS V14.01,2013-07-09 20:02:00,
2013-07-09 16:07:00,85.9,74.1,29.95,SSW,198,5.0,8.0,68,0.00,,BKN240,0.00,VWS V14.01,2013-07-09 20:07:00,
2013-07-09 16:12:00,85.5,74.2,29.95,SW,220,1.0,8.0,69,0.00,,BKN240,0.00,VWS V14.01,2013-07-09 20:12:00,
2013-07-09 16:17:00,85.3,74.0,29.94,WSW,241,4.0,9.0,69,0.00,,BKN240,0.00,VWS V14.01,2013-07-09 20:17:00,
2013-07-09 16:22:00,85.1,73.8,29.94,SSW,202,0.0,5.0,69,0.00,,BKN240,0.00,VWS V14.01,2013-07-09 20:22:00,
2013-07-09 16:27:00,85.2,73.9,29.94,SW,230,0.0,8.0,69,0.00,,BKN240,0.00,VWS V14.01,2013-07-09 20:27:00,
2013-07-09 16:32:00,85.7,74.4,29.94,WSW,248,2.0,3.0,69,0.00,,BKN240,0.00,VWS V14.01,2013-07-09 20:32:00,
2013-07-09 16:37:00,86.3,74.1,29.94,SW,221,0.0,10.0,67,0.00,,BKN240,0.00,VWS V14.01,2013-07-09 20:37:00,
2013-07-09 16:42:00,86.8,73.2,29.94,SW,234,5.0,12.0,64,0.00,,BKN240,0.00,VWS V14.01,2013-07-09 20:42:00,
2013-07-09 16:47:00,87.1,73.0,29.94,SW,236,3.0,12.0,63,0.00,,BKN240,0.00,VWS V14.01,2013-07-09 20:47:00,
2013-07-09 16:52:00,87.2,73.1,29.94,WNW,284,2.0,13.0,63,0.00,,BKN240,0.00,VWS V14.01,2013-07-09 20:52:00,
2013-07-09 16:57:00,87.2,73.1,29.94,WNW,298,2.0,13.0,63,0.00,,BKN240,0.00,VWS V14.01,2013-07-09 20:57:00,
2013-07-09 17:02:00,86.8,73.6,29.94,WNW,283,3.0,6.0,65,0.00,,BKN250,0.00,VWS V14.01,2013-07-09 21:02:00,
2013-07-09 17:07:00,86.4,74.2,29.94,SW,230,3.0,7.0,67,0.00,,BKN250,0.00,VWS V14.01,2013-07-09 21:07:00,
2013-07-09 17:12:00,86.0,73.8,29.94,WSW,256,0.0,7.0,67,0.00,,BKN250,0.00,VWS V14.01,2013-07-09 21:12:00,
2013-07-09 17:17:00,85.7,73.9,29.94,SSW,192,3.0,8.0,68,0.00,,BKN250,0.00,VWS V14.01,2013-07-09 21:17:00,
2013-07-09 17:22:00,85.8,74.5,29.94,SW,225,0.0,6.0,69,0.00,,BKN250,0.00,VWS V14.01,2013-07-09 21:22:00,
2013-07-09 17:27:00,86.2,74.8,29.94,SSW,207,4.0,9.0,69,0.00,,BKN250,0.00,VWS V14.01,2013-07-09 21:27:00,
2013-07-09 17:32:00,86.3,74.9,29.94,SSW,211,3.0,6.0,69,0.00,,BKN250,0.00,VWS V14.01,2013-07-09 21:32:00,
2013-07-09 17:37:00,86.5,74.7,29.94,SW,217,7.0,7.0,68,0.00,,BKN250,0.00,VWS V14.01,2013-07-09 21:37:00,
2013-07-09 17:42:00,86.6,74.8,29.94,SW,228,0.0,4.0,68,0.00,,BKN250,0.00,VWS V14.01,2013-07-09 21:42:00,
2013-07-09 17:47:00,86.9,74.6,29.94,SW,229,0.0,7.0,67,0.00,,BKN250,0.00,VWS V14.01,2013-07-09 21:47:00,
2013-07-09 17:52:00,86.9,75.1,29.94,WSW,245,0.0,6.0,68,0.00,,BKN250,0.00,VWS V14.01,2013-07-09 21:52:00,
2013-07-09 17:57:00,86.7,74.3,29.94,WSW,244,8.0,10.0,67,0.00,,BKN250,0.00,VWS V14.01,2013-07-09 21:57:00,
2013-07-09 18:02:00,86.0,73.8,29.94,WSW,245,4.0,7.0,67,0.00,,BKN250,0.00,VWS V14.01,2013-07-09 22:02:00,
2013-07-09 18:07:00,85.6,73.8,29.94,WSW,252,1.0,9.0,68,0.00,,BKN250,0.00,VWS V14.01,2013-07-09 22:07:00,
2013-07-09 18:12:00,85.3,74.0,29.93,SW,217,3.0,8.0,69,0.00,,BKN250,0.00,VWS V14.01,2013-07-09 22:12:00,
2013-07-09 18:17:00,85.2,73.9,29.93,SW,219,4.0,8.0,69,0.00,,BKN250,0.00,VWS V14.01,2013-07-09 22:17:00,
2013-07-09 18:22:00,85.1,74.1,29.93,WSW,244,0.0,7.0,70,0.00,,BKN250,0.00,VWS V14.01,2013-07-09 22:22:00,
2013-07-09 18:27:00,84.9,74.0,29.93,SSW,209,3.0,8.0,70,0.00,,BKN250,0.00,VWS V14.01,2013-07-09 22:27:00,
2013-07-09 18:32:00,84.9,73.9,29.93,SW,215,2.0,9.0,70,0.00,,BKN250,0.00,VWS V14.01,2013-07-09 22:32:00,
2013-07-09 18:37:00,84.4,74.0,29.93,West,281,0.0,9.0,71,0.00,,BKN250,0.00,VWS V14.01,2013-07-09 22:37:00,
2013-07-09 18:42:00,83.9,73.9,29.94,SW,234,2.0,5.0,72,0.00,,BKN250,0.00,VWS V14.01,2013-07-09 22:42:00,
2013-07-09 18:47:00,83.4,73.8,29.92,WSW,244,4.0,8.0,73,0.00,,BKN250,0.00,VWS V14.01,2013-07-09 22:47:00,
2013-07-09 18:52:00,83.2,74.1,29.93,WSW,257,4.0,4.0,74,0.00,,BKN250,0.00,VWS V14.01,2013-07-09 22:52:00,
2013-07-09 18:57:00,83.0,73.9,29.92,SW,235,3.0,6.0,74,0.00,,BKN250,0.00,VWS V14.01,2013-07-09 22:57:00,
2013-07-09 19:02:00,82.9,73.8,29.93,WSW,237,0.0,6.0,74,0.00,,BKN250,0.00,VWS V14.01,2013-07-09 23:02:00,
2013-07-09 19:07:00,82.8,74.1,29.93,SSW,199,0.0,6.0,75,0.00,,BKN250,0.00,VWS V14.01,2013-07-09 23:07:00,
2013-07-09 19:12:00,82.8,73.8,29.93,SW,236,2.0,7.0,74,0.00,,BKN250,0.00,VWS V14.01,2013-07-09 23:12:00,
2013-07-09 19:17:00,82.9,73.8,29.94,WSW,246,2.0,7.0,74,0.00,,BKN250,0.00,VWS V14.01,2013-07-09 23:17:00,
2013-07-09 19:22:00,82.7,73.6,29.93,WSW,238,0.0,5.0,74,0.00,,BKN250,0.00,VWS V14.01,2013-07-09 23:22:00,
2013-07-09 19:27:00,82.5,73.8,29.93,SW,219,0.0,7.0,75,0.00,,BKN250,0.00,VWS V14.01,2013-07-09 23:27:00,
2013-07-09 19:32:00,82.1,73.8,29.93,SW,223,0.0,1.0,76,0.00,,BKN250,0.00,VWS V14.01,2013-07-09 23:32:00,
2013-07-09 19:37:00,82.0,73.7,29.93,WSW,240,0.0,5.0,76,0.00,,BKN250,0.00,VWS V14.01,2013-07-09 23:37:00,
2013-07-09 19:42:00,81.8,73.5,29.94,WSW,246,2.0,5.0,76,0.00,,BKN250,0.00,VWS V14.01,2013-07-09 23:42:00,
2013-07-09 19:47:00,81.6,73.7,29.94,SW,226,1.0,5.0,77,0.00,,BKN250,0.00,VWS V14.01,2013-07-09 23:47:00,
2013-07-09 19:52:00,81.6,73.7,29.94,SSW,192,0.0,6.0,77,0.00,,BKN250,0.00,VWS V14.01,2013-07-09 23:52:00,
2013-07-09 19:57:00,81.5,74.0,29.94,SSW,211,0.0,6.0,78,0.00,,BKN250,0.00,VWS V14.01,2013-07-09 23:57:00,
2013-07-09 20:02:00,81.4,73.9,29.94,SW,232,1.0,6.0,78,0.00,,BKN250,0.00,VWS V14.01,2013-07-10 00:02:00,
2013-07-09 20:07:00,81.3,74.2,29.94,SW,219,0.0,6.0,79,0.00,,BKN250,0.00,VWS V14.01,2013-07-10 00:07:00,
2013-07-09 20:12:00,81.2,74.4,29.94,SSW,205,0.0,5.0,80,0.00,,BKN250,0.00,VWS V14.01,2013-07-10 00:12:00,
2013-07-09 20:17:00,80.9,74.2,29.94,SSW,213,7.0,7.0,80,0.00,,BKN250,0.00,VWS V14.01,2013-07-10 00:17:00,
2013-07-09 20:22:00,80.7,74.0,29.93,WSW,237,0.0,5.0,80,0.00,,BKN250,0.00,VWS V14.01,2013-07-10 00:22:00,
2013-07-09 20:27:00,80.5,74.1,29.93,SW,224,4.0,8.0,81,0.00,,BKN250,0.00,VWS V14.01,2013-07-10 00:27:00,
2013-07-09 20:32:00,80.6,74.2,29.94,WSW,244,6.0,7.0,81,0.00,,BKN250,0.00,VWS V14.01,2013-07-10 00:32:00,
2013-07-09 20:37:00,80.4,74.0,29.94,WSW,254,0.0,7.0,81,0.00,,BKN250,0.00,VWS V14.01,2013-07-10 00:37:00,
2013-07-09 20:42:00,80.3,73.9,29.93,WSW,257,0.0,4.0,81,0.00,,BKN250,0.00,VWS V14.01,2013-07-10 00:42:00,
2013-07-09 20:47:00,80.4,74.4,29.94,SW,216,0.0,6.0,82,0.00,,BKN250,0.00,VWS V14.01,2013-07-10 00:47:00,
2013-07-09 20:52:00,80.5,74.1,29.93,SW,223,0.0,4.0,81,0.00,,BKN250,0.00,VWS V14.01,2013-07-10 00:52:00,
2013-07-09 20:57:00,80.4,74.4,29.94,WSW,237,0.0,6.0,82,0.00,,BKN250,0.00,VWS V14.01,2013-07-10 00:57:00,
2013-07-09 21:02:00,80.3,74.4,29.94,WSW,242,2.0,4.0,82,0.00,,BKN250,0.00,VWS V14.01,2013-07-10 01:02:00,
2013-07-09 21:07:00,80.4,74.4,29.94,SW,232,0.0,4.0,82,0.00,,BKN250,0.00,VWS V14.01,2013-07-10 01:07:00,
2013-07-09 21:12:00,80.3,74.3,29.94,WSW,244,0.0,6.0,82,0.00,,BKN250,0.00,VWS V14.01,2013-07-10 01:12:00,
2013-07-09 21:17:00,80.2,74.2,29.95,WSW,239,0.0,6.0,82,0.00,,BKN250,0.00,VWS V14.01,2013-07-10 01:17:00,
2013-07-09 21:22:00,80.2,74.2,29.95,WSW,238,2.0,4.0,82,0.00,,BKN250,0.00,VWS V14.01,2013-07-10 01:22:00,
2013-07-09 21:27:00,80.3,74.3,29.94,WSW,239,4.0,4.0,82,0.00,,BKN250,0.00,VWS V14.01,2013-07-10 01:27:00,
2013-07-09 21:32:00,80.3,74.3,29.95,WSW,239,0.0,3.0,82,0.00,,BKN250,0.00,VWS V14.01,2013-07-10 01:32:00,
2013-07-09 21:37:00,80.2,74.2,29.95,WSW,245,0.0,3.0,82,0.00,,BKN250,0.00,VWS V14.01,2013-07-10 01:37:00,
2013-07-09 21:42:00,80.3,74.2,29.95,SW,224,1.0,6.0,82,0.00,,BKN250,0.00,VWS V14.01,2013-07-10 01:42:00,
2013-07-09 21:47:00,80.4,74.4,29.96,SW,223,0.0,6.0,82,0.00,,BKN250,0.00,VWS V14.01,2013-07-10 01:47:00,
2013-07-09 21:52:00,80.4,74.0,29.95,WSW,251,0.0,1.0,81,0.00,,BKN250,0.00,VWS V14.01,2013-07-10 01:52:00,
2013-07-09 21:57:00,80.5,74.1,29.96,WSW,244,0.0,4.0,81,0.00,,BKN250,0.00,VWS V14.01,2013-07-10 01:57:00,
2013-07-09 22:02:00,80.5,74.1,29.96,WSW,244,0.0,0.0,81,0.00,,BKN190,0.00,VWS V14.01,2013-07-10 02:02:00,
2013-07-09 22:07:00,80.5,73.8,29.96,WSW,246,0.0,1.0,80,0.00,,BKN190,0.00,VWS V14.01,2013-07-10 02:07:00,
2013-07-09 22:12:00,80.6,74.2,29.96,WSW,246,0.0,1.0,81,0.00,,BKN190,0.00,VWS V14.01,2013-07-10 02:12:00,
2013-07-09 22:17:00,80.6,74.2,29.96,WSW,246,0.0,3.0,81,0.00,,BKN190,0.00,VWS V14.01,2013-07-10 02:17:00,
2013-07-09 22:22:00,80.6,73.9,29.96,WSW,246,0.0,2.0,80,0.00,,BKN190,0.00,VWS V14.01,2013-07-10 02:22:00,
2013-07-09 22:27:00,80.6,73.9,29.96,WSW,245,0.0,4.0,80,0.00,,BKN190,0.00,VWS V14.01,2013-07-10 02:27:00,
2013-07-09 22:32:00,80.6,73.9,29.96,WSW,245,0.0,5.0,80,0.00,,BKN190,0.00,VWS V14.01,2013-07-10 02:32:00,
2013-07-09 22:37:00,80.6,73.9,29.95,WSW,245,0.0,5.0,80,0.00,,BKN190,0.00,VWS V14.01,2013-07-10 02:37:00,
2013-07-09 22:42:00,80.5,73.8,29.96,WSW,245,0.0,0.0,80,0.00,,BKN190,0.00,VWS V14.01,2013-07-10 02:42:00,
2013-07-09 22:47:00,80.4,73.7,29.96,WSW,245,0.0,1.0,80,0.00,,BKN190,0.00,VWS V14.01,2013-07-10 02:47:00,
2013-07-09 22:52:00,80.4,73.7,29.96,SW,218,0.0,5.0,80,0.00,,BKN190,0.00,VWS V14.01,2013-07-10 02:52:00,
2013-07-09 22:57:00,80.4,73.3,29.96,SW,219,0.0,5.0,79,0.00,,BKN190,0.00,VWS V14.01,2013-07-10 02:57:00,
2013-07-09 23:02:00,80.5,73.4,29.96,SW,218,0.0,0.0,79,0.00,,OVC140,0.00,VWS V14.01,2013-07-10 03:02:00,
2013-07-09 23:07:00,80.5,73.4,29.96,SW,219,0.0,1.0,79,0.00,,OVC140,0.00,VWS V14.01,2013-07-10 03:07:00,
2013-07-09 23:12:00,80.5,73.0,29.96,NNW,341,0.0,4.0,78,0.00,,OVC140,0.00,VWS V14.01,2013-07-10 03:12:00,
2013-07-09 23:17:00,80.5,72.2,29.96,NW,304,0.0,6.0,76,0.00,,OVC140,0.00,VWS V14.01,2013-07-10 03:17:00,
2013-07-09 23:22:00,80.4,71.4,29.96,WNW,296,0.0,6.0,74,0.00,,OVC140,0.00,VWS V14.01,2013-07-10 03:22:00,
2013-07-09 23:27:00,80.3,71.3,29.96,NW,309,0.0,6.0,74,0.00,,OVC140,0.00,VWS V14.01,2013-07-10 03:27:00,
2013-07-09 23:32:00,80.4,71.4,29.96,WNW,302,0.0,2.0,74,0.00,,OVC140,0.00,VWS V14.01,2013-07-10 03:32:00,
2013-07-09 23:37:00,80.4,71.4,29.96,WNW,301,0.0,4.0,74,0.00,,OVC140,0.00,VWS V14.01,2013-07-10 03:37:00,
2013-07-09 23:42:00,80.4,71.0,29.96,WNW,302,1.0,3.0,73,0.00,,OVC140,0.00,VWS V14.01,2013-07-10 03:42:00,
2013-07-09 23:47:00,80.5,71.5,29.96,WNW,302,0.0,3.0,74,0.00,,OVC140,0.00,VWS V14.01,2013-07-10 03:47:00,
2013-07-09 23:52:00,80.4,71.0,29.96,WNW,301,0.0,0.0,73,0.00,,OVC140,0.00,VWS V14.01,2013-07-10 03:52:00,
2013-07-09 23:57:00,80.4,71.0,29.96,WNW,301,0.0,1.0,73,0.00,,OVC140,0.00,VWS V14.01,2013-07-10 03:57:00,